Weather History for KHIE - June, 2013

Change the Weather History Date:

Tuesday, June 4, 2013

  Actual Average Record
Temperature  
Mean Temperature 51 °F -  
Max Temperature 62 °F 67 °F 84 °F (2005)
Min Temperature 41 °F 39 °F 27 °F (2002)
Degree Days  
Heating Degree Days 14    
Growing Degree Days 1 (Base 50)    
Moisture  
Dew Point 40 °F    
Average Humidity 66    
Maximum Humidity 93    
Minimum Humidity 44    
Precipitation  
Precipitation 0.00 in - - ()
Sea Level Pressure  
Sea Level Pressure 29.96 in    
Wind  
Wind Speed 5 mph (WNW)    
Max Wind Speed 13 mph    
Max Gust Speed 21 mph    
Visibility 10 miles    
Events      
Averages and records for this station are not official NWS values.
T = Trace of Precipitation, MM = Missing Value Source: NWS Daily Summary

Daily Weather History Graph

Daily Weather History Graph

Search for Another Location

Airport or City:

Trip Planner

Search our weather history database for the weather conditions in past years. The results will help you decide how hot, cold, wet, or windy it might be!

Date:

Astronomy

Jun. 04, 2013 Rise Set
Actual Time 5:03 AM EDT 8:25 PM EDT
Civil Twilight 4:27 AM EDT 9:02 PM EDT
Nautical Twilight 3:40 AM EDT 9:49 PM EDT
Astronomical Twilight 2:41 AM EDT 10:48 PM EDT
Moon 2:39 AM EDT (6/4) 4:45 PM EDT (6/4)
Length of Visible Light 16h 34m
Length of Day
15h 22m
Waning Crescent, 14% of the Moon is Illuminated
Jun 4
Waning Crescent
Jun 8
New
Jun 16
First Quarter
Jun 23
Full
Jun 30
Last Quarter

Hourly Weather History & Observations

Time (EDT) Temp. Windchill Dew Point Humidity Pressure Visibility Wind Dir Wind Speed Gust Speed Precip Events Conditions
12:52 AM 48.9 °F - 45.0 °F 86% 29.86 in 10.0 mi Calm Calm - N/A   Overcast
1:52 AM 46.0 °F - 43.0 °F 89% 29.86 in 10.0 mi Calm Calm - N/A   Scattered Clouds
2:52 AM 46.0 °F 43.9 °F 42.1 °F 86% 29.86 in 10.0 mi SSW 4.6 mph - N/A   Clear
3:52 AM 45.0 °F - 39.0 °F 80% 29.86 in 10.0 mi Calm Calm - N/A   Clear
4:52 AM 41.0 °F - 39.0 °F 93% 29.87 in 10.0 mi Calm Calm - N/A   Clear
5:52 AM 45.0 °F 42.6 °F 39.9 °F 82% 29.88 in 10.0 mi SW 4.6 mph - N/A   Overcast
6:52 AM 48.0 °F - 41.0 °F 77% 29.88 in 10.0 mi Calm Calm - N/A   Overcast
7:18 AM 50.0 °F - 41.0 °F 71% 29.88 in 10.0 mi Variable 4.6 mph - N/A   Overcast
7:49 AM 50.0 °F - 41.0 °F 71% 29.88 in 10.0 mi SW 6.9 mph - N/A   Overcast
7:52 AM 50.0 °F - 41.0 °F 71% 29.89 in 10.0 mi Variable 4.6 mph - N/A   Overcast
8:41 AM 51.8 °F - 39.2 °F 62% 29.89 in 10.0 mi WSW 6.9 mph - N/A   Overcast
8:52 AM 52.0 °F - 39.9 °F 63% 29.91 in 10.0 mi West 8.1 mph - N/A   Overcast
9:52 AM 52.0 °F - 39.0 °F 61% 29.93 in 10.0 mi West 11.5 mph 20.7 mph 0.00 in   Overcast
10:48 AM 51.8 °F - 39.2 °F 62% 29.93 in 10.0 mi WNW 9.2 mph - N/A   Overcast
10:52 AM 51.1 °F - 39.9 °F 66% 29.95 in 10.0 mi WNW 11.5 mph - N/A   Overcast
11:48 AM 51.8 °F - 37.4 °F 58% 29.96 in 10.0 mi WNW 8.1 mph 20.7 mph N/A   Overcast
11:52 AM 51.1 °F - 39.0 °F 63% 29.98 in 10.0 mi North 9.2 mph 20.7 mph N/A   Overcast
12:02 PM 51.8 °F - 39.2 °F 62% 29.96 in 10.0 mi NW 8.1 mph - N/A   Overcast
12:52 PM 54.0 °F - 41.0 °F 62% 30.00 in 10.0 mi NW 10.4 mph - N/A   Overcast
1:08 PM 53.6 °F - 39.2 °F 58% 29.98 in 10.0 mi WNW 12.7 mph - N/A   Overcast
1:52 PM 54.0 °F - 39.9 °F 59% 30.00 in 10.0 mi West 6.9 mph 17.3 mph N/A   Overcast
2:52 PM 55.9 °F - 39.9 °F 55% 29.99 in 10.0 mi West 6.9 mph - N/A   Overcast
3:52 PM 60.1 °F - 39.9 °F 47% 29.97 in 10.0 mi WNW 10.4 mph 18.4 mph N/A   Mostly Cloudy
4:52 PM 61.0 °F - 39.0 °F 44% 29.99 in 10.0 mi WNW 9.2 mph - N/A   Clear
5:52 PM 59.0 °F - 39.0 °F 48% 30.00 in 10.0 mi NNW 12.7 mph 19.6 mph N/A   Mostly Cloudy
6:52 PM 60.1 °F - 39.9 °F 47% 30.03 in 10.0 mi NNW 9.2 mph - N/A   Overcast
7:52 PM 57.0 °F - 39.0 °F 51% 30.06 in 10.0 mi WNW 9.2 mph - N/A   Overcast
8:52 PM 52.0 °F - 39.0 °F 61% 30.07 in 10.0 mi Calm Calm - N/A   Clear
9:52 PM 50.0 °F - 39.9 °F 68% 30.09 in 10.0 mi Calm Calm - N/A   Clear
10:52 PM 48.9 °F - 41.0 °F 74% 30.10 in 10.0 mi SW 3.5 mph - N/A   Clear
11:52 PM 48.9 °F - 41.0 °F 74% 30.12 in 10.0 mi SW 4.6 mph - N/A   Clear